Starlink 31575

operational
NORAD ID: 59471 Int'l Des: 2024-068 Owner: SPXS Country: US Constellation: starlink
LEOCIRCULAR

Über Starlink 31575

Beschreibung wird geladen...

Live-Position

3D-Globus wird geladen...

Nächste Überflüge

Höhenverlauf

Altitude vs Time

uPlot chart will show altitude changes over time

Zweizeiliger Elementsatz

1 59471U 24068S 26033.97151867 -.00000447 00000-0 -67163-5 0 9999
2 59471 43.0006 227.0734 0001247 275.2115 84.8594 15.27571546103255
Epoch: 2. Feb. 2026 • Age: 14 hours

Aktueller Status

Höhe 495.5 km
Geschwindigkeit 7.62 km/s
Subsatellitenpunkt -42.97°S, 170.59°E
Startdatum 10. Apr. 2024
Alter 1.8 years
Typ internet

Technische Details

Klassifizierung Payload
Masse 730.00 kg
Trockenmasse 700.00 kg
Gesamtmasse 730.00 kg
Länge 0.30 m
Durchmesser 4.10 m
Spannweite 29.00 m
Form Box + pan
Hersteller SPXS
Bus-Typ Starlink V2M
Phasenstatus In Orbit
Besitzer/Staat SPXS/US

Große Konstellationen

Loading constellations...